カタログに戻る

COSMOS 1818 COOLANT

運用中LEO
NORAD 36949·DEBRIS·🇷🇺 Russia

打ち上げ Feb 1, 1987 から Baikonur Cosmodrome

Loading…

次のパス (今後24時間)

TLE

古いSource: Space-Track

元期: Sep 3, 2026, 11:36 UTC

1 36949U 87011AD  26246.48362922  .00000482  00000-0  18144-3 0  9999
2 36949  65.0100 316.6407 0021623 278.9910  80.8732 14.40896028355229

AllMySatでCOSMOS 1818 COOLANTをリアルタイム追跡

Download on the App Store